When you browse on this site, cookies collect data to enhance your experience and personalize the content and advertising you see.
Visit our Privacy Policy to learn more. By continuing to use the site, you agree to this use of cookies and data.
EN

Hourly Weather Carregado

Today, 9 August, Sunday

Time Temperature Precipitation Wind Pressure Humidity
00:00 +18°C° 0 mm 3 mps 756 mmHg 94%
01:00 +18°C° 0 mm 3 mps 756 mmHg 93%
02:00 +18°C° 0 mm 3 mps 756 mmHg 93%
03:00 +18°C° 0 mm 3 mps 756 mmHg 93%
04:00 +18°C° 0 mm 2 mps 756 mmHg 92%
05:00 +18°C° 0 mm 2 mps 756 mmHg 92%
06:00 +20°C° 0 mm 2 mps 756 mmHg 82%
07:00 +22°C° 0 mm 3 mps 756 mmHg 73%
08:00 +24°C° 0 mm 3 mps 756 mmHg 63%
09:00 +26°C° 0 mm 3 mps 756 mmHg 56%
10:00 +28°C° 0 mm 4 mps 756 mmHg 48%
11:00 +30°C° 0 mm 4 mps 757 mmHg 42%
12:00 +30°C° 0 mm 5 mps 756 mmHg 43%
13:00 +30°C° 0 mm 5 mps 756 mmHg 43%
14:00 +30°C° 0 mm 6 mps 755 mmHg 43%
15:00 +28°C° 0 mm 6 mps 755 mmHg 50%
16:00 +26°C° 0 mm 6 mps 755 mmHg 56%
17:00 +24°C° 0 mm 6 mps 755 mmHg 62%
18:00 +22°C° 0 mm 5 mps 755 mmHg 71%
19:00 +20°C° 0 mm 5 mps 755 mmHg 80%
20:00 +18°C° 0 mm 4 mps 755 mmHg 89%
21:00 +18°C° 0 mm 4 mps 755 mmHg 91%
22:00 +18°C° 0 mm 4 mps 755 mmHg 93%
23:00 +17°C° 0 mm 4 mps 755 mmHg 95%

Tomorrow, 10 August, Monday

Time Temperature Precipitation Wind Pressure Humidity
00:00 +17°C° 0 mm 4 mps 755 mmHg 95%
01:00 +17°C° 0 mm 4 mps 754 mmHg 95%
02:00 +17°C° 0 mm 3 mps 754 mmHg 94%
03:00 +17°C° 0 mm 3 mps 754 mmHg 95%
04:00 +17°C° 0 mm 3 mps 754 mmHg 95%
05:00 +17°C° 0 mm 3 mps 754 mmHg 95%
06:00 +19°C° 0 mm 3 mps 754 mmHg 87%
07:00 +20°C° 0 mm 4 mps 754 mmHg 78%
08:00 +22°C° 0 mm 4 mps 754 mmHg 69%
09:00 +25°C° 0 mm 4 mps 754 mmHg 62%
10:00 +27°C° 0 mm 4 mps 754 mmHg 56%
11:00 +28°C° 0 mm 5 mps 753 mmHg 49%
12:00 +28°C° 0 mm 5 mps 753 mmHg 49%
13:00 +28°C° 0 mm 6 mps 753 mmHg 49%
14:00 +28°C° 0 mm 6 mps 752 mmHg 50%
15:00 +27°C° 0 mm 6 mps 752 mmHg 56%
16:00 +24°C° 0 mm 6 mps 752 mmHg 62%
17:00 +23°C° 0 mm 7 mps 752 mmHg 69%
18:00 +21°C° 0 mm 6 mps 752 mmHg 76%
19:00 +20°C° 0 mm 5 mps 753 mmHg 84%
20:00 +19°C° 0 mm 4 mps 753 mmHg 91%
21:00 +18°C° 0 mm 4 mps 753 mmHg 92%
22:00 +18°C° 0 mm 3 mps 753 mmHg 94%
23:00 +18°C° 0 mm 3 mps 753 mmHg 95%

Day after tomorrow, 11 August, Tuesday

Time Temperature Precipitation Wind Pressure Humidity
00:00 +18°C° 0 mm 3 mps 753 mmHg 94%
01:00 +18°C° 0 mm 3 mps 752 mmHg 93%
02:00 +18°C° 0 mm 3 mps 752 mmHg 92%
03:00 +18°C° 0 mm 3 mps 752 mmHg 90%
04:00 +19°C° 0 mm 2 mps 752 mmHg 88%
05:00 +19°C° 0 mm 2 mps 752 mmHg 86%
06:00 +20°C° 0 mm 2 mps 752 mmHg 80%
07:00 +21°C° 0 mm 3 mps 753 mmHg 75%
08:00 +22°C° 0 mm 3 mps 753 mmHg 69%
09:00 +25°C° 0 mm 3 mps 753 mmHg 63%
10:00 +27°C° 0 mm 4 mps 753 mmHg 57%
11:00 +28°C° 0 mm 4 mps 753 mmHg 51%
12:00 +28°C° 0 mm 5 mps 753 mmHg 53%
13:00 +27°C° 0 mm 6 mps 753 mmHg 55%
14:00 +27°C° 0 mm 6 mps 753 mmHg 57%
15:00 +26°C° 0 mm 6 mps 753 mmHg 61%
16:00 +24°C° 0 mm 6 mps 753 mmHg 66%
17:00 +23°C° 0 mm 7 mps 753 mmHg 70%
18:00 +22°C° 0 mm 6 mps 753 mmHg 76%
19:00 +21°C° 0 mm 6 mps 754 mmHg 82%
20:00 +19°C° 0 mm 5 mps 754 mmHg 88%
21:00 +20°C° 0 mm 5 mps 754 mmHg 87%
22:00 +20°C° 0 mm 5 mps 754 mmHg 87%
23:00 +20°C° 0 mm 5 mps 754 mmHg 86%

12 August, Wednesday

Time Temperature Precipitation Wind Pressure Humidity
00:00 +20°C° 0 mm 5 mps 754 mmHg 86%
01:00 +20°C° 0 mm 5 mps 754 mmHg 86%
02:00 +20°C° 0 mm 5 mps 754 mmHg 86%
03:00 +20°C° 0.1 mm 5 mps 754 mmHg 88%
04:00 +20°C° 0.1 mm 5 mps 754 mmHg 89%
05:00 +20°C° 0.1 mm 5 mps 754 mmHg 91%
06:00 +20°C° 0.1 mm 5 mps 754 mmHg 87%
07:00 +21°C° 0.1 mm 5 mps 755 mmHg 84%
08:00 +21°C° 0.1 mm 5 mps 755 mmHg 80%
09:00 +22°C° 0.1 mm 5 mps 755 mmHg 77%
10:00 +23°C° 0.1 mm 6 mps 756 mmHg 74%
11:00 +23°C° 0.1 mm 6 mps 756 mmHg 70%
12:00 +23°C° 0.1 mm 6 mps 756 mmHg 69%
13:00 +24°C° 0.1 mm 6 mps 756 mmHg 68%
14:00 +24°C° 0.1 mm 7 mps 756 mmHg 66%
15:00 +23°C° 0 mm 6 mps 755 mmHg 67%
16:00 +23°C° 0 mm 6 mps 755 mmHg 68%
17:00 +22°C° 0 mm 6 mps 755 mmHg 69%
18:00 +21°C° 0 mm 5 mps 756 mmHg 75%
19:00 +19°C° 0 mm 5 mps 756 mmHg 81%
20:00 +18°C° 0 mm 4 mps 757 mmHg 86%
21:00 +18°C° 0 mm 4 mps 757 mmHg 89%
22:00 +17°C° 0 mm 4 mps 757 mmHg 91%
23:00 +17°C° 0 mm 4 mps 757 mmHg 93%

13 August, Thursday

Time Temperature Precipitation Wind Pressure Humidity
00:00 +17°C° 0 mm 4 mps 756 mmHg 94%
01:00 +17°C° 0 mm 4 mps 756 mmHg 94%
02:00 +17°C° 0 mm 4 mps 756 mmHg 94%
03:00 +17°C° 0 mm 4 mps 756 mmHg 94%
04:00 +17°C° 0 mm 4 mps 756 mmHg 94%
05:00 +17°C° 0 mm 4 mps 756 mmHg 94%
06:00 +19°C° 0 mm 5 mps 756 mmHg 83%
07:00 +21°C° 0 mm 5 mps 757 mmHg 72%
08:00 +23°C° 0 mm 6 mps 757 mmHg 60%
09:00 +24°C° 0 mm 6 mps 757 mmHg 54%
10:00 +27°C° 0 mm 6 mps 757 mmHg 48%
11:00 +28°C° 0 mm 7 mps 757 mmHg 42%
12:00 +28°C° 0 mm 7 mps 756 mmHg 41%
13:00 +28°C° 0 mm 7 mps 756 mmHg 40%
14:00 +28°C° 0 mm 8 mps 756 mmHg 40%
15:00 +26°C° 0 mm 8 mps 756 mmHg 45%
16:00 +24°C° 0 mm 8 mps 756 mmHg 50%
17:00 +22°C° 0 mm 8 mps 756 mmHg 55%
18:00 +21°C° 0 mm 7 mps 756 mmHg 65%
19:00 +19°C° 0 mm 6 mps 756 mmHg 74%
20:00 +17°C° 0 mm 5 mps 757 mmHg 83%
21:00 +17°C° 0 mm 5 mps 757 mmHg 86%
22:00 +16°C° 0 mm 5 mps 757 mmHg 89%
23:00 +17°C° 0 mm 4 mps 757 mmHg 93%

14 August, Friday

Time Temperature Precipitation Wind Pressure Humidity
00:00 +17°C° 0 mm 4 mps 756 mmHg 93%
01:00 +15°C° 0 mm 4 mps 756 mmHg 93%
02:00 +15°C° 0 mm 4 mps 756 mmHg 93%
03:00 +15°C° 0 mm 4 mps 756 mmHg 93%
04:00 +15°C° 0 mm 4 mps 756 mmHg 93%
05:00 +15°C° 0 mm 4 mps 756 mmHg 92%
06:00 +17°C° 0 mm 5 mps 756 mmHg 81%
07:00 +20°C° 0 mm 5 mps 756 mmHg 69%
08:00 +22°C° 0 mm 6 mps 756 mmHg 58%
09:00 +23°C° 0 mm 6 mps 756 mmHg 53%
10:00 +24°C° 0 mm 6 mps 756 mmHg 49%
11:00 +27°C° 0 mm 7 mps 756 mmHg 44%
12:00 +27°C° 0 mm 7 mps 755 mmHg 45%
13:00 +27°C° 0 mm 7 mps 755 mmHg 45%
14:00 +27°C° 0 mm 7 mps 755 mmHg 46%
15:00 +24°C° 0 mm 7 mps 755 mmHg 50%
16:00 +23°C° 0 mm 7 mps 755 mmHg 53%
17:00 +22°C° 0 mm 7 mps 755 mmHg 57%
18:00 +20°C° 0 mm 7 mps 755 mmHg 64%
19:00 +19°C° 0 mm 6 mps 756 mmHg 72%
20:00 +16°C° 0 mm 5 mps 756 mmHg 79%
21:00 +16°C° 0 mm 5 mps 756 mmHg 81%
22:00 +16°C° 0 mm 5 mps 756 mmHg 83%
23:00 +16°C° 0 mm 5 mps 756 mmHg 85%
Show more